Home   Weather   Cincinnati   Past weeks
Flag for USA

Past Weather in Cincinnati, Ohio, USA — Yesterday and Last 2 Weeks

Now
59 °F

Light rain. Fog.


Feels Like: 59 °F
Forecast: 69 / 57 °F
Wind: No wind

Location: Cincinnati Municipal Airport Lunken Field

Current Time: Apr 25, 2019 at 10:12:59 am

Latest Report: Apr 25, 2019 at 8:53 am


Visibility: 4 mi

Pressure: 29.85 "Hg

Humidity: 96%

Dew Point: 58 °F

Location of CincinnatiLocation

Past Weather in Cincinnati — Graph

°F

Cincinnati Temperature Yesterday

Maximum temperature yesterday: 69 °F (at 4:53 pm)
Minimum temperature yesterday: 50 °F (at 4:53 am)
Average temperature yesterday: 59 °F

High & Low Weather Summary for the Past Weeks

 TemperatureHumidityPressure
High81 °F (Apr 11, 2:53 pm)97% (Apr 17, 5:53 am)30.26 "Hg (Apr 17, 5:53 am)
Low37 °F (Apr 16, 6:53 am)28% (Apr 13, 4:53 pm)29.28 "Hg (Apr 14, 2:53 pm)
Average56 °F70%29.87 "Hg
* Reported Apr 10 8:53 am — Apr 25 8:53 am, Cincinnati. Weather by CustomWeather, © 2019

Note: Actual official high and low records may vary slightly from our data, if they occured in-between our weather recording intervals... More about our weather records

Advertising

Cincinnati Weather History for the Previous 24 Hours

Scroll right to see more
 ConditionsComfort  
Time TempWeatherWind HumidityBarometerVisibility
8:53 am
Thu, Apr 25
59 °FLight rain. Fog.No wind96%29.85 "Hg4 mi
7:53 am58 °FLight rain. Fog.No wind97%29.85 "Hg3 mi
6:53 am57 °FLight rain. Fog.No wind96%29.83 "Hg4 mi
5:53 am57 °FLight rain. Fog.No wind96%29.83 "Hg5 mi
5:14 am58 °FLight rain. Fog.No wind93%29.84 "Hg6 mi
4:53 am58 °FLight rain. Fog.No wind93%29.83 "Hg6 mi
3:53 am57 °FRain. Fog.No wind96%29.84 "Hg5 mi
2:53 am57 °FLight rain. Mostly cloudy.No wind96%29.84 "Hg7 mi
1:53 am58 °FLight rain. Mostly cloudy.No wind93%29.87 "Hg9 mi
12:53 am57 °FLight rain. Overcast.No wind93%29.87 "Hg10 mi
11:53 pm
Wed, Apr 24
57 °FLight rain. Overcast.No wind93%29.89 "Hg7 mi
10:53 pm57 °FLight rain. Mostly cloudy.No wind93%29.90 "Hg10 mi
9:53 pm59 °FLight rain. Mostly cloudy.3 mph81%29.89 "Hg10 mi
8:53 pm62 °FLight rain. Mostly cloudy.5 mph67%29.89 "Hg10 mi
7:53 pm64 °FScattered clouds.7 mph56%29.87 "Hg10 mi
6:53 pm66 °FPartly sunny.6 mph54%29.88 "Hg10 mi
5:53 pm68 °FPartly sunny.6 mph53%29.89 "Hg10 mi
4:53 pm69 °FSunny.5 mph49%29.90 "Hg10 mi
3:53 pm67 °FSunny.7 mph51%29.90 "Hg10 mi
3:24 pm67 °FScattered clouds.7 mph49%29.95 "Hg10 mi
2:53 pm65 °FPartly sunny.6 mph49%29.96 "Hg10 mi
1:53 pm62 °FMostly cloudy.No wind56%29.98 "Hg10 mi
12:53 pm60 °FPartly sunny.3 mph58%30.01 "Hg10 mi
11:53 am60 °FPartly sunny.No wind56%30.03 "Hg10 mi
10:53 am56 °FPartly sunny.3 mph62%30.04 "Hg10 mi
Weather by CustomWeather, © 2019

See weather overview